Terminal Aerodrome Forecast
Issued by NWS

Home | Current Version | Previous Version | Text Only | Print | Product List | Glossary On
Versions: 1 2 3 4 5 6 7 8 9 10 11 12 13 14 15
000
FTAK31 PANC 241738
TAFAGK
TAF
PAGK 241738Z 2418/2518 VRB03KT P6SM SCT015 OVC100
      TEMPO 2418/2420 BKN014
     FM242200 VRB04KT 6SM -SN OVC025
      TEMPO 2422/2424 2SM -SN OVC018
     FM250000 VRB03KT 2SM -SN OVC018
     FM250500 33005KT P6SM -SHSN SCT020 BKN050
     FM251100 VRB03KT P6SM VCFG SCT005 BKN025=

USA.gov is the U.S. government's official web portal to all federal, state and local government web resources and services.